period_start,C,m1,H,J0,J1,J2,J3,J4,J5,JA,JB,JC,JD,JJ,JK,JN,#
2015-07-30 00:04:02,0.04,0.32,0.00,23.86,27.45,29.85,4.77,24.77,1019.73,2039.01,3248.92,3192.19,3448.54,349.88,347.50,21.67,0000 0000 0000 0000 000000
2015-07-30 00:09:03,0.02,0.32,0.00,23.88,27.45,29.85,4.76,24.50,1019.60,2039.01,3248.47,3192.00,3448.04,350.00,347.40,21.70,0000 0000 0000 0000 000000
2015-07-30 00:14:04,0.01,0.32,0.00,23.87,27.45,29.83,4.83,24.50,1019.75,2039.01,3248.03,3192.00,3448.00,350.88,348.58,21.73,0000 0000 0000 0000 000000
2015-07-30 00:19:05,0.00,0.32,0.00,23.88,27.45,29.84,4.74,24.48,1019.97,2039.02,3248.00,3191.99,3448.00,350.17,347.69,21.76,0000 0000 0000 0000 000000
2015-07-30 00:24:06,0.00,0.32,0.00,23.87,27.45,29.84,4.75,24.57,1020.00,2039.01,3247.88,3191.99,3447.96,350.12,347.92,21.79,0000 0000 0000 0000 000000
2015-07-30 00:29:08,0.03,0.32,0.00,23.87,27.45,29.84,4.76,24.51,1020.02,2039.02,3247.31,3191.95,3447.70,349.98,347.54,21.82,0000 0000 0000 0000 000000
2015-07-30 00:34:09,0.04,0.32,0.00,23.87,27.45,29.82,4.73,24.54,1020.02,2039.03,3247.01,3191.58,3447.10,349.84,347.67,21.85,0000 0000 0000 0000 000000
2015-07-30 00:39:10,0.01,0.32,0.00,23.87,27.45,29.84,4.74,24.56,1020.01,2039.02,3247.00,3191.19,3447.00,350.09,348.02,21.88,0000 0000 0000 0000 000000
2015-07-30 00:44:11,0.01,0.33,0.00,23.87,27.45,29.83,4.73,24.61,1020.00,2039.03,3246.78,3191.06,3447.00,350.07,348.14,21.91,0000 0000 0000 0000 000000
2015-07-30 00:49:13,0.02,0.33,0.00,23.87,27.45,29.83,4.80,24.52,1020.02,2039.05,3246.12,3191.00,3446.97,350.21,348.30,21.94,0000 0000 0000 0000 000000
2015-07-30 00:54:14,0.02,0.33,0.00,23.86,27.45,29.85,4.73,24.61,1020.03,2039.04,3246.00,3191.00,3446.49,349.90,347.69,21.96,0000 0000 0000 0000 000000
2015-07-30 00:59:16,0.01,0.33,0.00,23.85,27.45,29.86,4.77,24.66,1020.03,2039.03,3245.80,3190.97,3446.03,349.80,347.77,21.99,0000 0000 0000 0000 000000
2015-07-30 01:04:17,0.04,0.33,0.00,23.85,27.45,29.85,4.77,24.75,1020.02,2039.00,3245.10,3190.58,3445.98,350.45,348.13,22.02,0000 0000 0000 0000 000000
2015-07-30 01:09:18,0.02,0.33,0.00,23.85,27.45,29.85,4.81,24.65,1020.02,2039.01,3245.00,3190.13,3445.85,350.08,348.02,22.05,0000 0000 0000 0000 000000
2015-07-30 01:14:19,0.03,0.33,0.00,23.85,27.45,29.84,4.68,24.57,1020.02,2039.03,3244.62,3190.03,3445.27,349.71,347.60,22.08,0000 0000 0000 0000 000000
2015-07-30 01:19:20,0.01,0.33,0.00,23.87,27.45,29.85,4.72,24.58,1019.98,2039.02,3244.04,3190.01,3445.02,349.37,347.40,22.11,0000 0000 0000 0000 000000
2015-07-30 01:24:22,0.01,0.33,0.00,23.87,27.45,29.84,4.69,24.54,1019.97,2039.02,3243.94,3189.97,3444.99,349.54,347.23,22.14,0000 0000 0000 0000 000000
2015-07-30 01:29:23,0.04,0.33,0.00,23.87,27.45,29.86,4.70,24.53,1020.02,2039.07,3243.16,3189.80,3444.63,349.06,346.87,22.17,0000 0000 0000 0000 000000
2015-07-30 01:34:24,0.03,0.33,0.00,23.85,27.45,29.86,4.81,24.49,1020.03,2039.05,3243.00,3189.34,3444.08,350.22,348.11,22.20,0000 0000 0000 0000 000000
2015-07-30 01:39:25,0.02,0.33,0.00,23.85,27.45,29.87,4.81,24.45,1020.03,2039.02,3242.49,3189.01,3443.99,350.81,348.53,22.23,0000 0000 0000 0000 000000
2015-07-30 01:44:26,0.02,0.33,0.00,23.84,27.45,29.88,4.78,24.57,1020.03,2039.00,3242.01,3189.00,3443.56,350.62,348.39,22.26,0000 0000 0000 0000 000000
2015-07-30 01:49:28,0.03,0.34,0.00,23.85,27.45,29.86,4.72,24.66,1020.03,2039.01,3241.66,3188.90,3443.02,349.48,347.19,22.29,0000 0000 0000 0000 000000
2015-07-30 01:54:29,0.04,0.34,0.00,23.85,27.45,29.85,4.74,24.63,1020.05,2039.03,3241.03,3188.38,3442.97,349.89,347.84,22.32,0000 0000 0000 0000 000000
2015-07-30 01:59:30,0.04,0.34,0.00,23.85,27.45,29.86,4.69,24.50,1020.04,2039.02,3240.66,3188.02,3442.33,348.99,346.60,22.35,0000 0000 0000 0000 000000
2015-07-30 02:04:32,0.01,0.34,0.00,23.85,27.45,29.86,4.75,24.82,1020.05,2039.00,3240.01,3187.98,3441.99,349.81,347.87,22.38,0000 0000 0000 0000 000000
2015-07-30 02:09:33,0.03,0.34,0.00,23.85,27.45,29.87,4.73,24.52,1020.06,2039.00,3239.76,3187.87,3441.89,350.28,348.06,22.40,0000 0000 0000 0000 000000
2015-07-30 02:14:34,0.06,0.34,0.00,23.85,27.45,29.87,4.75,24.60,1020.06,2039.00,3239.08,3187.25,3441.24,349.31,347.22,22.43,0000 0000 0000 0000 000000
2015-07-30 02:19:36,0.00,0.34,0.00,23.87,27.45,29.85,4.72,24.47,1020.07,2039.01,3238.99,3187.03,3441.01,349.56,347.59,22.46,0000 0000 0000 0000 000000
2015-07-30 02:24:37,0.02,0.34,0.00,23.86,27.45,29.87,4.74,24.50,1020.10,2039.01,3238.60,3187.00,3440.99,350.02,348.03,22.49,0000 0000 0000 0000 000000
2015-07-30 02:29:38,0.01,0.34,0.00,23.85,27.45,29.85,4.72,24.44,1020.13,2039.00,3238.02,3186.99,3440.82,350.37,348.25,22.52,0000 0000 0000 0000 000000
2015-07-30 02:34:40,0.02,0.34,0.00,23.85,27.45,29.85,4.73,24.57,1020.18,2039.01,3237.98,3186.96,3440.18,349.54,347.39,22.55,0000 0000 0000 0000 000000
2015-07-30 02:39:41,0.03,0.34,0.00,23.85,27.45,29.87,4.79,24.59,1020.39,2039.00,3237.60,3186.66,3440.01,350.30,348.31,22.58,0000 0000 0000 0000 000000
2015-07-30 02:44:42,0.03,0.35,0.00,23.85,27.45,29.86,4.74,24.56,1020.49,2039.01,3237.06,3186.12,3439.99,349.71,347.78,22.61,0000 0000 0000 0000 000000
2015-07-30 02:49:43,0.01,0.35,0.00,23.85,27.45,29.87,4.79,24.67,1020.51,2039.00,3236.98,3186.01,3439.88,350.36,348.35,22.64,0000 0000 0000 0000 000000
2015-07-30 02:54:44,0.03,0.35,0.00,23.87,27.45,29.87,4.71,24.52,1020.52,2039.00,3236.53,3186.00,3439.26,349.60,347.53,22.67,0000 0000 0000 0000 000000
2015-07-30 02:59:45,0.01,0.35,0.00,23.87,27.45,29.85,4.70,24.56,1020.52,2039.00,3236.02,3185.97,3439.00,349.56,347.55,22.70,0000 0000 0000 0000 000000
2015-07-30 03:04:46,0.04,0.35,0.00,23.87,27.45,29.81,4.84,24.72,1020.52,2039.00,3235.57,3185.67,3438.96,350.14,348.14,22.73,0000 0000 0000 0000 000000
2015-07-30 03:09:47,0.04,0.35,0.00,23.87,27.45,29.86,4.76,24.51,1020.52,2039.01,3235.04,3185.12,3438.38,350.11,348.07,22.76,0000 0000 0000 0000 000000
2015-07-30 03:14:48,0.01,0.35,0.00,23.86,27.45,29.84,4.77,24.62,1020.52,2039.01,3234.97,3185.00,3438.01,350.03,348.05,22.78,0000 0000 0000 0000 000000
2015-07-30 03:19:50,0.02,0.35,0.00,23.85,27.45,29.86,4.74,24.52,1020.52,2039.01,3234.28,3185.00,3437.98,350.53,348.63,22.81,0000 0000 0000 0000 000000
2015-07-30 03:24:51,0.01,0.35,0.00,23.86,27.45,29.83,4.76,24.60,1020.53,2039.01,3234.00,3184.97,3437.70,350.12,347.88,22.84,0000 0000 0000 0000 000000
2015-07-30 03:29:53,0.07,0.35,0.00,23.87,27.45,29.83,4.75,24.57,1020.54,2039.00,3233.60,3184.41,3437.05,350.23,348.20,22.87,0000 0000 0000 0000 000000
2015-07-30 03:34:54,0.01,0.35,0.00,23.87,27.45,29.84,4.76,24.64,1020.55,2039.01,3233.03,3184.09,3437.00,350.09,348.04,22.90,0000 0000 0000 0000 000000
2015-07-30 03:39:55,0.01,0.35,0.00,23.87,27.45,29.85,4.72,24.48,1020.60,2039.02,3232.93,3184.00,3436.83,349.64,347.64,22.93,0000 0000 0000 0000 000000
2015-07-30 03:44:56,0.03,0.35,0.00,23.86,27.45,29.84,4.75,24.57,1020.62,2039.02,3232.16,3184.00,3436.13,349.91,347.86,22.96,0000 0000 0000 0000 000000
2015-07-30 03:49:57,0.00,0.36,0.00,23.85,27.45,29.87,4.77,24.58,1020.57,2039.02,3232.00,3183.96,3436.01,349.78,347.74,22.99,0000 0000 0000 0000 000000
2015-07-30 03:54:59,0.03,0.36,0.00,23.86,27.45,29.85,4.75,24.52,1020.58,2039.01,3231.81,3183.58,3436.00,349.69,347.72,23.02,0000 0000 0000 0000 000000
2015-07-30 04:00:00,0.05,0.36,0.00,23.87,27.45,29.84,4.69,24.63,1020.65,2039.01,3231.11,3183.09,3435.58,349.57,347.65,23.05,0000 0000 0000 0000 000000
2015-07-30 04:05:01,0.01,0.36,0.00,23.87,27.45,29.84,4.78,24.79,1020.82,2039.00,3230.96,3183.00,3435.05,350.51,348.64,23.08,0000 0000 0000 0000 000000
2015-07-30 04:10:02,0.03,0.36,0.00,23.87,27.45,29.86,4.72,24.55,1020.91,2039.00,3230.32,3182.98,3434.98,349.36,347.75,23.11,0000 0000 0000 0000 000000
2015-07-30 04:15:04,0.04,0.36,0.00,23.86,27.45,29.86,4.78,24.65,1020.93,2039.01,3229.97,3182.62,3434.62,350.00,348.15,23.14,0000 0000 0000 0000 000000
2015-07-30 04:20:05,0.05,0.36,0.00,23.85,27.45,29.86,4.71,24.49,1020.95,2039.03,3229.23,3182.04,3434.04,349.84,348.10,23.17,0000 0000 0000 0000 000000
2015-07-30 04:25:06,-0.00,0.36,0.00,23.85,27.45,29.85,4.81,24.53,1020.88,2039.01,3228.93,3182.00,3433.94,350.12,348.20,23.19,0000 0000 0000 0000 000000
2015-07-30 04:30:07,0.05,0.36,0.00,23.87,27.45,29.85,4.77,24.54,1020.90,2039.02,3228.13,3181.92,3433.21,350.10,348.20,23.22,0000 0000 0000 0000 000000
2015-07-30 04:35:08,0.03,0.36,0.00,23.87,27.45,29.86,4.75,24.61,1020.99,2039.01,3227.96,3181.20,3433.00,349.67,347.83,23.25,0000 0000 0000 0000 000000
2015-07-30 04:40:10,0.04,0.37,0.00,23.87,27.45,29.84,4.80,24.61,1021.01,2039.00,3227.15,3181.00,3432.64,350.11,348.34,23.28,0000 0000 0000 0000 000000
2015-07-30 04:45:11,0.01,0.37,0.00,23.87,27.45,29.85,4.71,24.62,1021.00,2039.00,3226.92,3180.99,3432.06,349.80,347.95,23.31,0000 0000 0000 0000 000000
2015-07-30 04:50:12,0.04,0.37,0.00,23.87,27.45,29.83,4.79,24.63,1021.01,2039.01,3226.17,3180.71,3431.99,349.75,348.04,23.34,0000 0000 0000 0000 000000
2015-07-30 04:55:13,0.05,0.37,0.00,23.87,27.45,29.81,4.74,24.55,1021.02,2039.01,3225.92,3180.08,3431.40,349.84,348.01,23.37,0000 0000 0000 0000 000000
2015-07-30 05:00:15,0.02,0.37,0.00,23.88,27.45,29.85,4.72,24.57,1021.01,2039.02,3225.19,3180.00,3431.01,349.79,348.01,23.40,0000 0000 0000 0000 000000
2015-07-30 05:05:16,0.06,0.37,0.00,23.89,27.45,29.84,4.75,24.75,1021.02,2039.00,3224.54,3179.75,3430.52,350.19,348.36,23.43,0000 0000 0000 0000 000000
2015-07-30 05:10:17,0.03,0.37,0.00,23.90,27.45,29.82,4.80,24.58,1021.02,2039.00,3223.88,3179.06,3430.00,350.58,348.58,23.46,0000 0000 0000 0000 000000
2015-07-30 05:15:19,0.05,0.37,0.00,23.90,27.45,29.83,4.72,24.73,1021.06,2039.00,3223.09,3178.92,3429.41,349.40,347.55,23.49,0000 0000 0000 0000 000000
2015-07-30 05:20:20,0.06,0.38,0.00,23.90,27.45,29.83,4.73,24.63,1021.33,2039.00,3222.35,3178.25,3428.92,349.59,347.86,23.52,0000 0000 0000 0000 000000
2015-07-30 05:25:21,0.04,0.38,0.00,23.91,27.46,29.84,4.69,24.57,1021.46,2039.01,3221.65,3177.98,3428.12,349.44,347.56,23.55,0000 0000 0000 0000 000000
2015-07-30 05:30:22,0.07,0.38,0.00,23.92,27.47,29.84,4.74,24.59,1021.49,2039.00,3220.86,3177.41,3427.70,349.80,348.25,23.58,0000 0000 0000 0000 000000
2015-07-30 05:35:23,0.03,0.38,0.00,23.92,27.47,29.82,4.73,24.63,1021.50,2039.00,3220.08,3177.00,3427.01,349.93,347.95,23.61,0000 0000 0000 0000 000000
2015-07-30 05:40:25,0.05,0.38,0.00,23.92,27.47,29.83,4.75,24.64,1021.50,2039.00,3219.40,3176.77,3426.45,349.61,347.78,23.63,0000 0000 0000 0000 000000
2015-07-30 05:45:26,0.04,0.38,0.00,23.94,27.47,29.84,4.74,24.65,1021.50,2039.00,3218.88,3176.09,3426.02,349.92,348.12,23.66,0000 0000 0000 0000 000000
2015-07-30 05:50:28,0.03,0.38,0.00,23.95,27.47,29.84,4.80,24.68,1021.50,2039.00,3218.11,3176.00,3425.65,350.30,348.43,23.69,0000 0000 0000 0000 000000
2015-07-30 05:55:29,0.03,0.39,0.00,23.94,27.47,29.84,4.76,24.50,1021.52,2039.00,3217.74,3175.83,3425.02,350.30,348.42,23.72,0000 0000 0000 0000 000000
2015-07-30 06:00:30,0.05,0.39,0.00,23.94,27.47,29.83,4.79,24.72,1021.53,2038.99,3217.05,3175.15,3424.83,349.87,348.10,23.75,0000 0000 0000 0000 000000
2015-07-30 06:05:31,0.04,0.39,0.00,23.94,27.47,29.84,4.77,24.80,1021.52,2038.99,3216.46,3175.00,3424.07,350.58,348.70,23.78,0000 0000 0000 0000 000000
2015-07-30 06:10:32,0.00,0.39,0.00,23.94,27.47,29.85,4.73,24.61,1021.53,2038.99,3216.01,3174.95,3423.99,349.99,348.06,23.81,0000 0000 0000 0000 000000
2015-07-30 06:15:34,0.08,0.39,0.00,23.95,27.47,29.87,4.75,24.65,1021.52,2038.99,3215.40,3174.29,3423.35,350.05,348.24,23.84,0000 0000 0000 0000 000000
2015-07-30 06:20:35,0.01,0.39,0.00,23.95,27.47,29.86,4.75,24.60,1021.52,2038.98,3215.00,3174.01,3423.01,349.82,347.94,23.87,0000 0000 0000 0000 000000
2015-07-30 06:25:36,0.03,0.39,0.00,23.96,27.48,29.88,4.78,24.61,1021.55,2038.99,3214.43,3174.00,3422.70,349.95,348.25,23.90,0000 0000 0000 0000 000000
2015-07-30 06:30:38,0.02,0.39,0.00,23.95,27.49,29.85,4.75,24.62,1021.85,2038.98,3214.00,3173.88,3422.06,349.64,348.04,23.93,0000 0000 0000 0000 000000
2015-07-30 06:35:39,0.05,0.39,0.00,23.95,27.49,29.86,4.82,24.77,1021.90,2038.99,3213.49,3173.33,3421.99,350.28,348.66,23.96,0000 0000 0000 0000 000000
2015-07-30 06:40:41,0.03,0.40,0.00,23.96,27.49,29.87,4.75,24.76,1021.93,2038.98,3213.01,3173.02,3421.54,350.20,348.47,23.99,0000 0000 0000 0000 000000
2015-07-30 06:45:42,0.02,0.40,0.00,23.96,27.50,29.86,4.78,24.69,1021.97,2038.98,3212.60,3173.00,3421.02,349.88,348.36,24.01,0000 0000 0000 0000 000000
2015-07-30 06:50:44,0.01,0.40,0.00,23.96,27.50,29.87,4.80,24.72,1021.99,2038.98,3212.02,3172.96,3420.98,350.33,348.66,24.04,0000 0000 0000 0000 000000
2015-07-30 06:55:45,0.06,0.40,0.00,23.96,27.50,29.87,4.70,24.63,1021.99,2038.98,3211.83,3172.33,3420.36,349.94,348.28,24.07,0000 0000 0000 0000 000000
2015-07-30 07:00:46,0.03,0.40,0.00,23.96,27.50,29.85,4.78,24.82,1021.99,2038.98,3211.16,3172.04,3420.01,350.34,348.70,24.10,0000 0000 0000 0000 000000
2015-07-30 07:05:48,-0.00,0.40,0.00,23.96,27.50,29.87,4.77,24.79,1021.99,2038.97,3210.99,3172.00,3419.97,349.89,348.28,24.13,0000 0000 0000 0000 000000
2015-07-30 07:10:49,0.04,0.40,0.00,23.97,27.50,29.87,4.74,24.62,1021.99,2038.94,3210.42,3171.97,3419.51,349.61,348.00,24.16,0000 0000 0000 0000 000000
2015-07-30 07:15:50,0.03,0.40,0.00,23.97,27.50,29.86,4.74,24.73,1022.00,2038.92,3210.00,3171.63,3419.01,349.88,348.33,24.19,0000 0000 0000 0000 000000
2015-07-30 07:20:52,0.03,0.40,0.00,23.97,27.50,29.87,4.76,24.68,1022.00,2038.93,3209.59,3171.07,3418.96,349.97,348.38,24.22,0000 0000 0000 0000 000000
2015-07-30 07:25:53,0.03,0.40,0.00,23.99,27.50,29.87,4.72,24.64,1021.99,2038.96,3209.03,3171.00,3418.48,349.85,348.18,24.25,0000 0000 0000 0000 000000
2015-07-30 07:30:55,0.00,0.40,0.00,23.98,27.50,29.88,4.74,24.63,1021.99,2038.95,3208.98,3170.99,3418.02,349.81,348.20,24.28,0000 0000 0000 0000 000000
2015-07-30 07:35:56,0.03,0.41,0.00,23.99,27.50,29.87,4.74,24.63,1021.99,2038.97,3208.39,3170.96,3418.00,349.77,348.21,24.31,0000 0000 0000 0000 000000
2015-07-30 07:40:57,0.04,0.41,0.00,24.02,27.51,29.88,4.76,24.62,1022.00,2038.96,3208.01,3170.50,3417.68,349.96,348.30,24.34,0000 0000 0000 0000 000000
2015-07-30 07:45:58,0.03,0.41,0.00,24.02,27.52,29.87,4.70,24.77,1022.04,2038.96,3207.70,3170.05,3417.05,349.68,348.31,24.37,0000 0000 0000 0000 000000
2015-07-30 07:50:59,0.01,0.41,0.00,24.02,27.52,29.88,4.76,24.81,1022.08,2038.95,3207.04,3170.00,3416.98,349.82,348.26,24.40,0000 0000 0000 0000 000000
2015-07-30 07:56:00,0.02,0.41,0.00,24.02,27.52,29.89,4.81,24.59,1022.29,2038.89,3206.85,3169.96,3416.60,350.70,349.10,24.42,0000 0000 0000 0000 000000
2015-07-30 08:01:01,0.04,0.41,0.00,24.02,27.52,29.88,4.74,24.77,1022.45,2038.85,3206.14,3169.56,3416.05,349.83,348.28,24.45,0000 0000 0000 0000 000000
2015-07-30 08:06:03,0.02,0.41,0.00,24.02,27.52,29.89,4.77,24.82,1022.44,2038.80,3205.98,3169.05,3415.98,349.92,348.33,24.48,0000 0000 0000 0000 000000
2015-07-30 08:11:04,0.03,0.41,0.00,24.02,27.52,29.89,4.79,24.68,1022.46,2038.84,3205.52,3169.00,3415.72,349.95,348.53,24.51,0000 0000 0000 0000 000000
2015-07-30 08:16:05,0.02,0.41,0.00,24.02,27.52,29.91,4.75,24.57,1022.48,2038.88,3205.03,3168.99,3415.08,350.19,348.84,24.54,0000 0000 0000 0000 000000
2015-07-30 08:21:07,0.01,0.41,0.00,24.03,27.53,29.90,4.73,24.58,1022.48,2038.80,3204.82,3168.83,3414.99,349.86,348.31,24.57,0000 0000 0000 0000 000000
2015-07-30 08:26:08,0.05,0.41,0.00,24.02,27.54,29.90,4.80,24.70,1022.48,2038.65,3204.05,3168.14,3414.51,350.01,348.43,24.60,0000 0000 0000 0000 000000
2015-07-30 08:31:09,-0.04,0.41,0.00,24.02,27.55,29.90,4.77,24.52,1022.48,2038.38,3203.86,3168.01,3414.01,350.17,348.66,24.63,0000 0000 0000 0000 000000
2015-07-30 08:36:11,-0.00,0.41,0.00,24.02,27.55,29.92,4.72,24.57,1022.48,2038.10,3203.06,3167.96,3413.80,349.89,348.46,24.66,0000 0000 0000 0000 000000
2015-07-30 08:41:12,0.07,0.41,0.00,24.01,27.55,29.91,4.74,24.63,1022.48,2038.10,3202.67,3167.37,3413.12,349.84,348.37,24.69,0000 0000 0000 0000 000000
2015-07-30 08:46:13,0.02,0.42,0.00,24.00,27.55,29.91,4.73,24.63,1022.48,2038.13,3202.03,3167.03,3413.00,350.10,348.53,24.72,0000 0000 0000 0000 000000
2015-07-30 08:51:15,0.02,0.42,0.00,24.02,27.55,29.91,4.67,24.60,1022.48,2038.13,3201.89,3167.00,3412.71,349.33,347.72,24.75,0000 0000 0000 0000 000000
2015-07-30 08:56:16,0.04,0.42,0.00,24.02,27.55,29.92,4.78,24.62,1022.48,2038.11,3201.15,3166.95,3412.04,349.97,348.53,24.78,0000 0000 0000 0000 000000
2015-07-30 09:01:17,0.02,0.42,0.00,24.02,27.55,29.92,4.75,24.66,1022.48,2038.08,3200.94,3166.50,3412.00,349.68,347.94,24.81,0000 0000 0000 0000 000000
2015-07-30 09:06:18,0.06,0.42,0.00,24.02,27.55,29.92,4.75,24.69,1022.48,2038.03,3200.14,3166.03,3411.40,349.62,348.10,24.84,0000 0000 0000 0000 000000
2015-07-30 09:11:19,-0.00,0.42,0.00,24.02,27.56,29.94,4.87,24.60,1022.48,2038.02,3199.97,3165.98,3411.03,350.80,349.18,24.86,0000 0000 0000 0000 000000
2015-07-30 09:16:20,0.03,0.42,0.00,24.03,27.57,29.94,4.76,24.64,1022.48,2038.02,3199.31,3165.84,3410.95,349.84,348.37,24.89,0000 0000 0000 0000 000000
2015-07-30 09:21:21,0.05,0.42,0.00,24.03,27.57,29.94,4.76,24.55,1022.50,2038.05,3199.00,3165.45,3410.53,349.75,348.11,24.92,0000 0000 0000 0000 000000
2015-07-30 09:26:22,0.01,0.42,0.00,24.04,27.57,29.93,4.74,24.48,1022.49,2038.05,3198.92,3165.05,3410.02,349.85,348.47,24.95,0000 0000 0000 0000 000000
2015-07-30 09:31:24,0.03,0.42,0.00,24.03,27.57,29.93,4.77,24.63,1022.49,2038.06,3198.19,3165.00,3409.99,349.87,348.40,24.98,0000 0000 0000 0000 000000
2015-07-30 09:36:25,0.02,0.42,0.00,24.04,27.57,29.94,4.78,24.63,1022.51,2038.05,3197.97,3164.97,3409.50,350.01,348.18,25.01,0000 0000 0000 0000 000000
2015-07-30 09:41:26,0.06,0.43,0.00,24.04,27.57,29.93,4.75,24.59,1022.53,2038.03,3197.25,3164.36,3409.01,350.11,348.56,25.04,0000 0000 0000 0000 000000
2015-07-30 09:46:27,0.01,0.43,0.00,24.03,27.57,29.96,4.76,24.60,1022.53,2038.02,3197.00,3164.04,3408.94,349.70,348.21,25.07,0000 0000 0000 0000 000000
2015-07-30 09:51:29,0.03,0.43,0.00,24.02,27.57,29.95,4.78,24.52,1022.57,2038.03,3196.65,3164.00,3408.36,349.84,348.37,25.10,0000 0000 0000 0000 000000
2015-07-30 09:56:30,0.02,0.43,0.00,24.02,27.57,29.95,4.75,24.61,1022.60,2038.04,3196.04,3163.99,3408.01,349.84,348.46,25.13,0000 0000 0000 0000 000000
2015-07-30 10:01:31,0.01,0.43,0.00,24.02,27.58,29.95,4.79,24.76,1022.65,2038.03,3195.81,3163.87,3407.98,349.92,348.22,25.16,0000 0000 0000 0000 000000
2015-07-30 10:06:33,0.07,0.43,0.00,24.02,27.58,29.96,4.75,24.75,1022.66,2038.01,3195.05,3163.13,3407.22,349.94,348.48,25.19,0000 0000 0000 0000 000000
2015-07-30 10:11:34,0.00,0.43,0.00,24.02,27.58,29.97,4.77,24.63,1022.66,2038.02,3194.97,3163.00,3407.01,350.18,348.76,25.22,0000 0000 0000 0000 000000
2015-07-30 10:16:35,0.02,0.43,0.00,24.05,27.59,29.96,4.80,24.63,1022.76,2038.02,3194.34,3163.00,3406.99,350.44,348.97,25.25,0000 0000 0000 0000 000000
2015-07-30 10:21:37,0.03,0.43,0.00,24.05,27.60,29.95,4.80,24.69,1022.80,2038.03,3194.01,3162.94,3406.46,349.82,348.32,25.27,0000 0000 0000 0000 000000
2015-07-30 10:26:38,0.06,0.43,0.00,24.04,27.60,29.96,4.80,24.63,1022.70,2038.03,3193.49,3162.31,3406.02,349.83,348.46,25.30,0000 0000 0000 0000 000000
2015-07-30 10:31:39,0.01,0.43,0.00,24.03,27.60,29.95,4.79,24.71,1022.73,2038.01,3193.01,3162.03,3405.92,349.66,348.31,25.33,0000 0000 0000 0000 000000
2015-07-30 10:36:41,0.02,0.43,0.00,24.02,27.60,29.96,4.77,24.60,1022.81,2038.01,3192.83,3162.00,3405.37,350.12,348.61,25.36,0000 0000 0000 0000 000000
2015-07-30 10:41:42,0.04,0.44,0.00,24.04,27.60,29.97,4.78,24.63,1022.94,2038.01,3192.05,3161.76,3405.00,350.31,348.92,25.39,0000 0000 0000 0000 000000
2015-07-30 10:46:43,0.05,0.44,0.00,24.03,27.60,29.97,4.80,24.68,1022.94,2038.00,3191.76,3161.09,3404.73,350.00,348.76,25.42,0000 0000 0000 0000 000000
2015-07-30 10:51:44,0.04,0.44,0.00,24.03,27.60,29.98,4.82,24.64,1022.90,2038.02,3191.05,3161.00,3404.05,350.49,349.12,25.45,0000 0000 0000 0000 000000
2015-07-30 10:56:45,0.01,0.44,0.00,24.04,27.60,29.96,4.81,24.64,1022.93,2038.00,3190.81,3160.97,3403.99,350.61,349.27,25.48,0000 0000 0000 0000 000000
2015-07-30 11:01:46,0.06,0.44,0.00,24.04,27.60,29.97,4.75,24.73,1022.94,2038.00,3190.11,3160.68,3403.55,350.13,348.67,25.51,0000 0000 0000 0000 000000
2015-07-30 11:06:48,0.03,0.44,0.00,24.05,27.60,29.97,4.82,24.77,1022.96,2038.00,3189.90,3160.04,3403.01,350.16,348.75,25.54,0000 0000 0000 0000 000000
2015-07-30 11:11:49,0.02,0.44,0.00,24.05,27.60,29.96,4.77,24.61,1022.96,2038.00,3189.18,3160.00,3402.98,350.16,348.80,25.57,0000 0000 0000 0000 000000
2015-07-30 11:16:50,0.02,0.44,0.00,24.05,27.60,29.96,4.72,24.60,1022.96,2038.00,3188.98,3159.98,3402.35,349.56,348.30,25.60,0000 0000 0000 0000 000000
2015-07-30 11:21:51,0.05,0.44,0.00,24.05,27.60,29.97,4.79,24.74,1022.96,2038.00,3188.39,3159.61,3402.01,349.85,348.50,25.63,0000 0000 0000 0000 000000
2015-07-30 11:26:52,0.02,0.45,0.00,24.05,27.60,29.98,4.69,24.71,1022.96,2038.00,3188.00,3159.08,3401.94,349.58,348.05,25.66,0000 0000 0000 0000 000000
2015-07-30 11:31:54,0.04,0.45,0.00,24.05,27.60,29.96,4.75,24.69,1022.96,2038.00,3187.45,3159.00,3401.26,350.14,348.77,25.68,0000 0000 0000 0000 000000
2015-07-30 11:36:55,0.01,0.45,0.00,24.05,27.60,29.97,4.78,24.73,1022.96,2038.00,3187.01,3158.96,3401.01,350.11,348.56,25.71,0000 0000 0000 0000 000000
2015-07-30 11:41:56,0.02,0.45,0.00,24.05,27.60,29.98,4.71,24.63,1022.96,2038.00,3186.92,3158.56,3400.98,349.47,348.20,25.74,0000 0000 0000 0000 000000
2015-07-30 11:46:57,0.05,0.45,0.00,24.06,27.60,29.96,4.85,24.70,1022.96,2038.00,3186.21,3158.10,3400.58,350.27,348.92,25.77,0000 0000 0000 0000 000000
2015-07-30 11:51:59,0.01,0.45,0.00,24.05,27.61,29.97,4.75,24.63,1022.97,2038.00,3185.99,3158.00,3400.04,349.63,348.26,25.80,0000 0000 0000 0000 000000
2015-07-30 11:57:00,0.02,0.45,0.00,24.05,27.61,29.98,4.80,24.70,1022.98,2038.00,3185.61,3157.99,3400.00,350.24,348.80,25.83,0000 0000 0000 0000 000000
2015-07-30 12:02:01,0.02,0.45,0.00,24.05,27.62,29.99,4.75,24.84,1022.99,2038.00,3185.01,3157.86,3399.79,349.41,347.87,25.86,0000 0000 0000 0000 000000
2015-07-30 12:07:03,0.05,0.45,0.00,24.06,27.62,29.99,4.73,24.69,1022.98,2038.00,3184.92,3157.23,3399.06,349.53,348.11,25.89,0000 0000 0000 0000 000000
2015-07-30 12:12:04,0.02,0.45,0.00,24.06,27.62,29.98,4.75,24.65,1022.97,2037.99,3184.27,3157.03,3399.00,349.62,348.19,25.92,0000 0000 0000 0000 000000
2015-07-30 12:17:05,0.00,0.45,0.00,24.06,27.62,29.98,4.75,24.66,1022.97,2037.99,3184.01,3157.00,3398.93,349.67,348.25,25.95,0000 0000 0000 0000 000000
2015-07-30 12:22:06,0.03,0.45,0.00,24.06,27.62,29.98,4.78,24.69,1022.99,2037.99,3183.76,3156.96,3398.31,349.89,348.46,25.98,0000 0000 0000 0000 000000
2015-07-30 12:27:07,0.04,0.46,0.00,24.05,27.62,29.99,4.78,24.64,1023.00,2037.99,3183.07,3156.55,3398.01,350.29,348.81,26.01,0000 0000 0000 0000 000000
2015-07-30 12:32:09,0.01,0.46,0.00,24.05,27.62,29.98,4.74,24.65,1023.03,2037.99,3182.99,3156.11,3398.00,349.78,348.37,26.04,0000 0000 0000 0000 000000
2015-07-30 12:37:11,0.03,0.46,0.00,24.05,27.62,29.99,4.77,24.65,1023.00,2037.99,3182.56,3156.02,3397.68,350.18,349.11,26.07,0000 0000 0000 0000 000000
2015-07-30 12:42:12,0.01,0.46,0.00,24.05,27.62,29.99,4.77,24.76,1023.01,2037.99,3182.03,3155.99,3397.06,349.62,348.63,26.09,0000 0000 0000 0000 000000
2015-07-30 12:47:13,0.01,0.46,0.00,24.04,27.62,29.99,4.75,24.63,1023.02,2037.99,3181.88,3155.87,3397.00,349.64,348.17,26.12,0000 0000 0000 0000 000000
2015-07-30 12:52:14,0.05,0.46,0.00,24.04,27.62,29.98,4.85,24.62,1023.00,2037.99,3181.20,3155.22,3396.91,350.27,348.83,26.15,0000 0000 0000 0000 000000
2015-07-30 12:57:16,0.02,0.46,0.00,24.05,27.62,29.99,4.75,24.61,1022.98,2037.99,3180.99,3155.02,3396.22,349.65,348.32,26.18,0000 0000 0000 0000 000000
2015-07-30 13:02:17,0.02,0.46,0.00,24.05,27.62,29.98,4.76,24.80,1022.98,2037.99,3180.47,3155.00,3395.99,349.64,348.21,26.21,0000 0000 0000 0000 000000